Theta_e
349 349 349 350 351 350 349 349 346 343 343 343 344 345 346 342 346 344 338 342 344 341 348 343 346 340 342 341 345 348 349 345 346 342 335 337 332 339 344 344 338 341 348
349 349 348 352 352 353 350 350 347 341 347 347 349 349 349 348 348 346 341 347 345 343 348 344 343 342 343 343 346 349 340 341 348 348 346 342 338 333 340 345 338 336 342
349 349 349 350 353 352 352 352 351 351 351 349 350 350 349 349 348 342 348 348 348 347 346 347 343 342 343 343 341 344 341 341 340 339 343 341 339 336 337 344 346 348 345
348 347 348 350 350 352 351 352 352 352 352 352 352 351 351 351 351 349 350 349 350 350 348 345 346 343 343 342 340 339 341 340 337 339 342 341 338 343 341 348 347 348 343
345 346 348 344 348 352 352 351 352 352 351 351 353 351 351 351 352 352 351 351 352 351 348 349 351 346 343 346 345 339 342 343 343 336 339 343 342 345 347 349 345 341 344
348 345 343 342 351 352 352 352 352 352 352 350 352 352 352 351 352 352 349 349 347 349 351 351 351 345 345 344 343 340 342 343 344 336 339 340 339 347 348 349 348 343 342
348 348 338 341 351 352 352 350 350 352 350 351 349 353 352 351 350 350 352 352 352 350 350 351 352 346 345 342 341 342 342 342 336 337 343 340 338 341 347 345 349 340 342
347 347 343 348 350 352 353 350 351 352 351 351 351 353 351 352 353 351 351 351 349 352 352 350 350 348 345 344 339 338 341 344 342 340 343 341 341 344 345 345 343 347 348
347 350 351 351 350 352 350 350 348 350 351 351 352 350 351 352 348 349 352 352 351 352 352 351 349 346 342 342 345 340 340 341 343 338 343 341 339 347 349 346 342 342 342
346 346 348 350 348 351 347 352 349 349 352 348 348 350 350 351 349 348 345 351 353 352 351 349 347 346 344 342 341 341 343 342 344 337 342 340 338 346 349 348 347 348 344
346 349 350 349 346 341 340 351 352 346 350 349 346 346 342 345 347 350 346 349 353 353 352 349 347 351 348 343 344 343 347 343 342 337 338 341 338 340 350 349 347 346 347
350 350 349 346 340 339 344 347 343 345 346 344 345 345 346 347 347 349 349 348 351 350 347 348 352 350 350 343 347 348 342 342 344 343 338 338 340 343 351 348 345 345 345
347 348 347 341 340 341 344 342 341 346 345 342 343 348 349 350 350 350 350 350 349 348 348 348 345 342 342 340 341 342 343 341 342 342 342 337 338 342 350 348 346 344 347
347 345 344 339 340 340 346 341 335 341 342 344 348 350 350 349 350 350 351 350 350 349 350 348 348 348 346 347 341 338 341 345 344 342 342 341 341 341 343 347 348 348 347
346 343 340 337 341 347 349 344 347 345 348 348 349 349 350 349 350 350 349 349 349 349 347 348 350 349 348 347 349 347 346 345 345 345 342 343 342 341 338 340 343 340 341
346 343 340 346 347 349 350 349 348 351 351 351 350 350 351 350 350 350 349 350 352 351 350 349 347 345 345 345 345 346 346 347 345 345 343 344 341 343 342 341 341 339 339
346 346 346 348 350 350 349 348 347 348 350 350 351 352 352 350 350 351 349 351 352 352 351 348 349 349 347 346 346 347 348 348 347 346 344 344 342 342 342 341 339 338 341
345 345 347 347 349 350 350 350 350 349 350 351 352 351 350 350 351 351 350 350 351 349 349 351 346 349 347 347 348 347 348 348 349 348 347 346 344 343 342 341 341 340 340
345 345 346 346 349 350 349 351 351 350 350 349 349 348 350 351 351 351 352 351 349 347 344 346 347 346 346 347 348 348 347 347 348 349 349 348 346 345 343 341 343 339 340
344 346 346 348 350 350 350 350 351 351 351 351 350 350 352 351 352 350 352 349 346 349 345 344 341 343 346 348 346 345 348 348 348 348 349 348 347 347 345 343 346 344 343
346 347 348 347 347 348 348 348 348 350 351 351 351 347 352 346 352 351 352 351 350 347 343 339 342 345 348 347 347 347 347 348 348 348 348 346 344 345 347 347 347 346 345
346 347 348 347 348 346 343 343 347 348 351 351 350 348 350 349 352 353 351 352 350 346 340 338 341 342 341 346 346 346 342 346 347 347 346 342 341 341 342 342 340 341 341
346 347 347 348 347 343 340 344 346 348 351 355 352 350 350 351 352 353 353 352 349 346 341 341 338 341 340 339 346 345 341 342 343 346 346 343 343 342 342 340 338 337 333
344 347 348 348 347 346 344 345 344 347 350 352 353 353 353 354 353 354 354 347 346 343 340 341 341 340 340 338 343 343 345 345 341 340 346 345 345 344 343 339 337 334 328
344 345 346 347 347 346 345 347 348 347 350 351 353 353 352 352 353 353 353 352 345 342 344 342 340 338 337 336 337 338 344 344 342 337 338 339 340 339 343 339 336 328 325
343 344 344 345 345 345 345 348 349 347 350 354 353 352 348 352 353 353 354 352 346 343 345 343 336 338 336 335 336 336 337 341 341 338 334 335 333 330 340 337 329 325 324
Wind_Speed
13 18 21 21 21 23 25 24 25 26 27 25 23 23 23 24 21 21 20 17 15 15 12 13 12 12 11 10 11 12 13 14 13 12 9 11 12 10 10 14 18 17 15
18 19 21 21 21 21 23 21 23 24 23 23 21 21 21 20 19 17 16 15 14 12 9 10 9 10 9 10 11 11 10 12 12 11 9 9 13 8 8 8 15 15 15
20 19 20 20 20 20 19 19 22 20 20 21 19 18 17 18 17 16 14 13 12 10 8 8 8 8 8 7 9 11 8 11 11 10 11 13 13 11 10 8 8 12 15
21 21 20 19 19 18 18 15 17 18 17 17 17 16 15 13 14 15 13 12 10 9 8 7 7 7 7 6 6 8 9 8 7 8 12 14 12 13 14 13 10 11 14
23 22 21 21 19 17 15 15 13 15 16 16 13 14 14 12 11 12 13 11 9 7 7 6 7 8 6 5 6 7 9 6 4 9 11 11 13 13 14 14 13 12 13
24 23 21 19 16 15 13 13 12 12 13 14 13 12 11 11 10 9 10 10 8 6 6 6 7 8 7 8 7 8 9 7 5 8 13 11 13 12 12 12 13 10 8
25 22 20 17 16 13 12 12 12 10 11 10 11 12 11 10 10 9 6 8 7 7 5 6 5 6 7 8 10 8 6 6 4 3 11 12 13 12 10 11 12 11 9
27 23 19 16 15 14 11 11 11 10 10 10 11 10 12 10 9 8 7 7 8 6 6 5 5 5 7 9 10 13 7 3 6 11 10 11 12 11 10 11 11 12 11
25 23 20 17 14 13 12 11 11 10 10 10 10 10 11 9 9 8 7 5 6 5 5 4 4 5 7 8 9 10 9 5 5 8 10 11 12 10 12 11 12 11 11
24 22 20 19 16 15 14 12 11 12 11 10 9 9 10 7 7 6 5 6 6 5 4 4 5 5 6 8 9 9 10 8 7 4 8 9 12 11 12 12 12 12 13
22 23 21 21 19 15 13 13 12 12 11 10 9 7 8 7 6 5 4 6 6 6 5 5 5 6 6 7 8 9 10 9 14 9 6 7 10 12 12 12 12 12 11
23 25 23 21 18 17 15 13 13 12 11 10 10 9 8 6 4 4 6 6 6 5 5 6 6 4 6 8 8 9 11 10 14 13 11 12 10 12 11 12 13 13 12
28 25 25 21 20 18 15 13 13 12 11 10 9 7 7 6 4 5 7 6 5 4 6 9 7 11 10 9 9 11 12 13 14 14 11 14 14 13 12 12 13 14 14
27 28 25 23 21 18 14 13 12 12 11 10 10 8 6 5 4 5 6 5 4 5 9 6 11 11 13 9 11 14 15 14 14 15 14 13 15 12 9 11 13 13 14
27 27 26 24 23 18 15 13 11 11 11 10 10 9 7 4 6 5 4 4 3 4 3 6 7 9 8 7 8 11 15 13 14 14 10 13 19 17 16 15 13 13 13
29 29 26 24 22 19 16 14 13 11 10 9 9 8 7 4 3 4 4 3 4 3 3 3 4 4 4 5 8 9 12 13 15 15 13 10 16 18 16 17 14 12 12
32 30 29 25 23 19 15 13 16 14 13 10 10 7 7 5 4 2 4 1 1 1 1 3 6 6 8 9 9 13 15 14 13 15 14 13 14 14 14 13 14 13 11
30 31 30 27 25 22 17 13 11 13 15 14 12 7 4 7 6 6 5 4 4 2 5 7 6 6 3 7 7 6 5 7 9 10 14 17 15 16 14 13 13 13 13
36 33 33 29 28 27 21 14 13 8 9 12 14 13 8 7 6 5 4 5 5 2 2 5 5 6 4 6 2 2 1 3 4 7 8 11 17 16 16 11 10 11 12
34 34 33 32 29 28 22 18 14 8 5 8 9 10 11 10 8 6 5 4 5 4 3 3 4 5 7 9 10 10 7 4 8 6 6 6 5 8 13 11 8 12 7
33 34 35 33 30 28 25 21 17 12 7 9 10 8 13 7 11 6 3 4 3 4 1 2 5 10 12 15 13 16 12 11 9 9 12 12 13 11 7 4 5 6 6
35 38 37 34 31 27 24 23 21 15 10 13 12 14 18 8 8 6 5 6 5 5 1 1 7 7 8 8 8 8 3 6 9 10 12 14 15 15 14 15 14 13 12
32 39 41 37 32 28 24 22 18 14 9 10 12 13 12 8 8 8 6 5 9 6 3 2 4 5 6 5 12 5 2 2 3 5 8 11 12 12 13 13 12 11 8
38 41 41 38 34 30 26 23 23 20 16 11 9 13 9 8 8 8 7 6 8 7 5 4 3 4 4 8 8 2 4 7 3 1 5 8 7 8 11 10 9 8 7
32 38 42 39 35 33 31 28 23 22 17 14 12 14 11 10 10 8 9 8 9 10 6 5 3 3 3 5 7 5 7 5 8 4 2 4 9 8 11 9 7 5 6
30 31 35 39 36 35 33 31 27 25 20 16 15 15 13 13 12 11 8 10 9 10 8 4 3 4 3 2 3 6 8 6 5 6 3 4 8 5 10 9 7 5 6
Wind_Direction
130 120 115 111 110 111 110 115 118 121 124 127 131 135 136 137 136 140 138 137 137 136 126 123 119 119 119 118 113 113 122 121 115 119 133 130 120 96 108 115 112 115 109
139 130 123 118 115 111 113 117 120 122 124 122 125 129 133 140 145 146 143 144 142 136 133 127 125 119 117 123 117 113 119 129 125 128 131 132 143 111 110 115 116 123 118
139 134 128 121 121 116 118 121 118 122 123 123 129 133 139 143 148 147 147 148 149 145 148 138 138 135 132 124 128 127 124 133 130 132 136 145 140 146 146 148 124 131 132
144 137 132 130 120 121 121 118 118 125 119 122 129 134 142 146 156 150 152 158 165 161 168 156 154 148 142 143 139 141 127 144 120 144 146 150 151 163 155 155 148 139 136
148 145 139 134 125 121 122 124 126 125 129 123 129 134 140 148 155 150 154 161 171 180 183 176 172 158 156 150 139 160 138 153 154 148 149 152 157 161 156 156 156 145 139
152 149 145 136 131 130 132 127 125 130 130 132 140 139 143 145 146 151 148 155 158 158 174 178 177 163 148 150 147 153 160 160 162 162 156 152 152 159 162 158 150 150 133
156 154 154 147 143 140 137 129 131 135 133 139 138 140 138 143 150 145 148 143 147 146 150 157 173 153 124 133 144 166 164 144 164 149 155 159 163 161 171 167 151 148 148
159 160 158 157 155 149 148 138 145 136 142 143 141 139 129 147 145 141 151 163 157 152 146 146 152 140 134 144 168 172 180 183 182 159 168 161 162 165 170 170 166 156 161
167 164 164 167 165 165 155 153 150 151 153 153 149 150 140 152 150 153 162 173 153 157 158 159 161 157 137 151 161 179 186 204 185 184 165 161 166 168 176 177 173 165 172
175 175 175 176 175 178 169 162 166 166 163 157 159 152 146 156 153 155 158 184 174 175 166 185 189 161 158 157 166 193 197 201 199 223 197 169 171 177 182 177 179 179 176
185 187 185 183 184 179 171 175 180 177 174 168 159 161 148 160 161 175 188 198 204 198 196 209 210 201 186 174 170 182 198 209 210 241 241 200 187 187 186 186 186 191 188
192 194 192 191 188 184 183 180 186 183 180 178 165 167 168 172 172 197 219 218 215 220 223 237 216 229 233 198 188 195 210 223 227 244 256 226 212 201 193 195 194 197 197
194 196 198 196 195 191 185 186 190 188 185 186 180 178 176 180 193 222 239 234 225 234 243 242 217 226 223 225 208 213 223 226 234 241 243 226 228 211 206 205 201 197 201
197 199 202 202 197 190 188 191 187 186 188 193 191 186 196 200 210 228 246 255 253 255 233 240 250 244 244 250 227 229 235 236 232 237 236 227 212 211 235 223 210 211 207
199 197 201 197 200 192 189 192 189 191 194 193 197 193 202 208 226 234 245 267 267 240 249 252 270 273 270 244 243 241 236 236 232 239 244 234 208 204 212 222 225 219 216
199 193 194 195 197 199 197 200 207 202 199 201 216 220 228 227 210 216 229 262 297 260 287 288 298 273 284 248 241 236 247 250 241 234 244 234 210 211 209 209 208 220 217
200 195 194 195 201 203 206 211 225 227 224 214 217 225 242 261 276 235 238 218 270 218 278 266 291 266 260 269 271 268 262 254 248 232 234 232 209 214 218 214 209 221 217
200 201 200 197 205 208 206 216 207 219 229 231 228 226 205 225 244 237 219 208 165 175 246 259 252 262 336 260 273 276 264 249 238 237 226 224 216 213 212 218 222 224 231
202 201 203 199 201 203 194 186 178 184 214 230 223 232 199 217 236 212 206 169 170 153 122 156 171 170 90 94 151 1 179 259 261 235 227 216 217 218 213 215 226 216 233
198 197 195 195 194 190 192 191 188 210 210 218 213 203 209 213 218 219 198 189 167 215 164 187 180 161 109 114 88 64 114 74 65 100 143 110 166 170 206 217 217 223 234
189 189 189 190 191 192 199 195 195 193 205 196 213 213 204 233 226 218 191 198 180 174 206 236 162 123 110 132 115 86 84 69 65 80 104 104 103 108 123 149 171 190 161
189 194 194 197 195 198 205 205 206 207 213 224 240 230 215 248 218 222 222 224 193 186 189 165 185 137 132 159 136 111 48 47 59 76 102 112 110 110 111 112 111 109 110
189 197 200 202 200 198 200 201 201 208 215 229 227 200 207 206 217 214 212 187 184 192 184 148 168 171 150 169 178 130 106 167 101 59 106 116 120 118 123 121 116 105 91
198 202 204 204 203 201 201 201 204 211 216 225 230 208 205 194 203 201 202 187 188 190 168 153 149 180 185 166 188 229 216 156 151 116 135 135 142 145 142 136 118 90 61
195 203 206 206 206 205 203 206 209 215 218 227 226 210 213 212 211 211 200 194 191 187 176 154 161 184 194 184 185 161 143 97 124 130 131 128 138 151 167 157 126 88 51
200 202 204 205 208 207 208 209 211 212 213 220 215 221 224 216 208 212 200 195 195 186 187 180 159 196 203 184 175 178 174 174 180 150 118 144 139 127 163 155 145 97 56